OK1FET-15 Weather Reports


time (UTC)temp
F
wind
direction
speed
knots
gust
knots
rain 1hr
in
rain 24hr
in
rain mn
in
humidity
%
barometer
mb
20260503222553 55 104 0.0 0.0 0.00 0.00 0.00 57 1012.5
20260503222046 55 93 0.0 0.0 0.00 0.00 0.00 56 1012.5
20260503221539 55 90 0.0 0.0 0.00 0.00 0.00 56 1012.5
20260503221032 55 90 0.0 0.0 0.00 0.00 0.00 56 1012.5
20260503220525 55 96 0.0 0.0 0.00 0.00 0.00 56 1012.5
20260503220017 55 90 0.0 0.0 0.00 0.00 0.00 56 1012.5
20260503215510 55 93 0.0 0.0 0.00 0.00 0.00 56 1012.5
20260503215003 56 90 0.0 0.0 0.00 0.00 0.00 55 1012.5
20260503214456 56 87 0.0 0.0 0.00 0.00 0.00 54 1012.5
20260503213948 56 85 0.0 0.0 0.00 0.00 0.00 53 1012.5
20260503213441 56 88 0.0 0.0 0.00 0.00 0.00 53 1012.6
20260503212934 57 71 0.0 0.0 0.00 0.00 0.00 52 1012.6
20260503212427 57 81 0.0 0.0 0.00 0.00 0.00 52 1012.5
20260503211919 57 67 0.0 0.0 0.00 0.00 0.00 52 1012.5
20260503211412 57 87 0.0 0.0 0.00 0.00 0.00 51 1012.5
20260503210905 58 76 0.0 0.0 0.00 0.00 0.00 51 1012.5
20260503210357 58 63 0.0 0.0 0.00 0.00 0.00 50 1012.5
20260503205850 58 81 0.0 0.0 0.00 0.00 0.00 50 1012.5
20260503205343 58 81 0.0 0.0 0.00 0.00 0.00 50 1012.5
20260503204835 58 77 0.0 0.0 0.00 0.00 0.00 49 1012.6
20260503204328 58 73 0.0 0.0 0.00 0.00 0.00 48 1012.6
20260503203821 59 46 0.0 0.0 0.00 0.00 0.00 48 1012.7
20260503203313 59 57 0.0 0.0 0.00 0.00 0.00 48 1012.7
20260503202806 59 80 0.0 0.0 0.00 0.00 0.00 47 1012.7
20260503202258 59 76 0.0 0.9 0.00 0.00 0.00 47 1012.8
20260503201751 60 55 0.0 0.0 0.00 0.00 0.00 46 1012.7
20260503201244 60 107 0.0 0.0 0.00 0.00 0.00 46 1012.8
20260503200736 60 66 0.0 0.0 0.00 0.00 0.00 46 1012.8
20260503200229 60 99 0.0 0.0 0.00 0.00 0.00 46 1012.8
20260503195721 60 130 0.0 0.0 0.00 0.00 0.00 46 1012.9
20260503195214 60 108 0.0 1.7 0.00 0.00 0.00 46 1012.9
20260503194707 61 71 0.0 0.0 0.00 0.00 0.00 45 1012.9
20260503194159 61 73 0.0 0.0 0.00 0.00 0.00 45 1012.9
20260503193652 61 88 0.9 1.7 0.00 0.00 0.00 45 1012.8
20260503193144 61 38 0.0 0.0 0.00 0.00 0.00 44 1012.8
20260503192637 61 80 0.0 0.9 0.00 0.00 0.00 43 1012.7
20260503192129 62 94 0.0 0.9 0.00 0.00 0.00 43 1012.7
20260503191622 62 66 0.9 2.6 0.00 0.00 0.00 43 1012.6
20260503191114 62 83 0.0 1.7 0.00 0.00 0.00 42 1012.6
20260503190607 62 72 0.9 2.6 0.00 0.00 0.00 42 1012.6
20260503190100 62 56 0.0 0.0 0.00 0.00 0.00 41 1012.5
20260503185552 62 86 0.0 0.0 0.00 0.00 0.00 40 1012.4
20260503185045 63 77 0.0 0.0 0.00 0.00 0.00 40 1012.4
20260503184537 63 63 0.0 1.7 0.00 0.00 0.00 39 1012.4
20260503184029 63 69 0.0 0.0 0.00 0.00 0.00 39 1012.3
20260503183522 64 67 0.0 0.9 0.00 0.00 0.00 38 1012.2
20260503183014 64 87 0.0 0.0 0.00 0.00 0.00 38 1012.1
20260503182507 64 116 0.0 0.9 0.00 0.00 0.00 37 1012.1
20260503181959 65 118 0.0 0.0 0.00 0.00 0.00 37 1012.1
20260503181452 65 97 0.0 0.9 0.00 0.00 0.00 36 1012.0
20260503180944 65 84 0.0 0.0 0.00 0.00 0.00 36 1012.0
20260503180436 66 90 0.0 0.9 0.00 0.00 0.00 36 1011.9
20260503175929 67 72 0.0 0.0 0.00 0.00 0.00 35 1011.9
20260503175421 67 64 0.0 0.0 0.00 0.00 0.00 34 1011.9
20260503174913 67 73 0.0 0.0 0.00 0.00 0.00 33 1011.9
20260503174406 68 77 0.0 0.0 0.00 0.00 0.00 32 1011.9
20260503173858 68 99 0.0 0.0 0.00 0.00 0.00 32 1011.9
20260503173350 69 76 0.0 1.7 0.00 0.00 0.00 32 1011.8
20260503172842 69 55 0.9 4.3 0.00 0.00 0.00 31 1011.8
20260503172334 70 112 0.0 0.9 0.00 0.00 0.00 31 1011.7
20260503171827 70 147 0.0 1.7 0.00 0.00 0.00 31 1011.8
20260503171319 70 156 1.7 6.1 0.00 0.00 0.00 31 1011.8
20260503170811 71 173 0.0 0.9 0.00 0.00 0.00 31 1011.8
20260503170303 71 88 0.9 4.3 0.00 0.00 0.00 31 1011.8
20260503160127 76 107 0.9 3.5 0.00 0.00 0.00 27 1011.9
20260503151002 89 120 0.9 2.6 0.00 0.00 0.00 17 1012.2
20260503150453 89 214 0.9 6.1 0.00 0.00 0.00 17 1012.2
20260503140304 93 114 0.9 2.6 0.00 0.00 0.00 15 1013.2
20260503131132 93 54 0.9 2.6 0.00 0.00 0.00 14 1013.9
20260503130623 93 77 0.9 2.6 0.00 0.00 0.00 15 1013.9
20260503130114 94 125 0.0 1.7 0.00 0.00 0.00 15 1014.1
20260503110754 92 165 0.9 2.6 0.00 0.00 0.00 19 1015.4
20260503110245 91 83 0.9 1.7 0.00 0.00 0.00 19 1015.5
20260503090425 81 73 0.0 0.9 0.00 0.00 0.00 28 1016.8
20260503081303 74 95 0.9 1.7 0.00 0.00 0.00 33 1017.1
20260503080755 73 84 0.9 1.7 0.00 0.00 0.00 34 1017.2
20260503080247 72 74 0.9 2.6 0.00 0.00 0.00 34 1017.2
20260503072652 69 139 0.9 3.5 0.00 0.00 0.00 37 1017.2
20260503072145 68 131 0.9 2.6 0.00 0.00 0.00 37 1017.2
20260503071637 68 131 0.9 1.7 0.00 0.00 0.00 37 1017.3
20260503071129 67 136 0.9 4.3 0.00 0.00 0.00 38 1017.3
20260503070622 67 105 1.7 7.0 0.00 0.00 0.00 37 1017.4
20260503070114 67 128 0.0 0.9 0.00 0.00 0.00 40 1017.4
20260503054929 56 129 0.0 0.0 0.00 0.00 0.00 55 1017.2
20260503054422 56 103 0.0 0.0 0.00 0.00 0.00 58 1017.2
20260503053915 55 98 0.0 0.0 0.00 0.00 0.00 58 1017.2
20260503053407 54 45 0.0 0.0 0.00 0.00 0.00 60 1017.2
20260503052900 53 46 0.0 0.0 0.00 0.00 0.00 60 1017.2
20260503052353 52 56 0.0 0.0 0.00 0.00 0.00 59 1017.2
20260503051846 51 44 0.0 1.7 0.00 0.00 0.00 59 1017.3
20260503051339 51 63 0.9 2.6 0.00 0.00 0.00 58 1017.2
20260503050832 51 45 0.0 0.0 0.00 0.00 0.00 57 1017.2
20260503050325 51 92 0.0 0.0 0.00 0.00 0.00 56 1017.3
20260503045818 51 175 0.0 0.0 0.00 0.00 0.00 57 1017.2
20260503045310 51 225 0.0 0.0 0.00 0.00 0.00 56 1017.3
20260503044803 50 158 0.0 0.0 0.00 0.00 0.00 56 1017.3
20260503044256 50 75 0.0 0.0 0.00 0.00 0.00 56 1017.3
20260503043749 50 61 0.0 0.0 0.00 0.00 0.00 55 1017.3
20260503043242 49 45 0.0 0.0 0.00 0.00 0.00 55 1017.2
20260503042735 48 92 0.0 0.0 0.00 0.00 0.00 56 1017.1
20260503042228 47 117 0.0 0.0 0.00 0.00 0.00 57 1017.1
20260503041721 47 102 0.0 0.0 0.00 0.00 0.00 58 1017.1
20260503041215 45 122 0.0 0.0 0.00 0.00 0.00 58 1017.0
20260503040708 44 97 0.0 0.0 0.00 0.00 0.00 59 1017.1
20260503040201 44 45 0.0 0.0 0.00 0.00 0.00 58 1017.1
20260503035654 43 45 0.0 0.0 0.00 0.00 0.00 59 1017.2
20260503035147 43 45 0.0 0.0 0.00 0.00 0.00 58 1017.2
20260503034640 43 45 0.0 0.0 0.00 0.00 0.00 59 1017.2
20260503034133 43 45 0.0 0.0 0.00 0.00 0.00 58 1017.1
20260503033627 43 45 0.0 0.0 0.00 0.00 0.00 59 1017.2
20260503033120 43 45 0.0 0.0 0.00 0.00 0.00 61 1017.2
20260503032613 44 45 0.0 0.0 0.00 0.00 0.00 59 1017.2
20260503032106 44 45 0.0 0.0 0.00 0.00 0.00 60 1017.2
20260503031559 44 45 0.0 0.0 0.00 0.00 0.00 57 1017.2
20260503031052 44 83 0.0 0.0 0.00 0.00 0.00 57 1017.2
20260503030545 44 90 0.0 0.0 0.00 0.00 0.00 56 1017.2
20260503030038 44 90 0.0 0.0 0.00 0.00 0.00 56 1017.2
20260503025531 44 90 0.0 0.0 0.00 0.00 0.00 59 1017.2
20260503025025 44 90 0.0 0.0 0.00 0.00 0.00 57 1017.2
20260503024518 45 61 0.0 0.0 0.00 0.00 0.00 55 1017.2
20260503024011 45 80 0.0 0.0 0.00 0.00 0.00 54 1017.2
20260503023504 45 97 0.0 0.0 0.00 0.00 0.00 55 1017.2
20260503022957 45 72 0.0 0.0 0.00 0.00 0.00 55 1017.2
20260503022450 45 135 0.0 0.0 0.00 0.00 0.00 55 1017.2
20260503021943 45 125 0.0 0.0 0.00 0.00 0.00 55 1017.2
20260503021436 46 97 0.0 0.0 0.00 0.00 0.00 55 1017.3
20260503020929 46 135 0.0 0.0 0.00 0.00 0.00 55 1017.3
20260503020422 46 123 0.0 0.0 0.00 0.00 0.00 55 1017.3
20260503015915 46 97 0.0 0.0 0.00 0.00 0.00 54 1017.3
20260503015408 46 78 0.0 0.0 0.00 0.00 0.00 54 1017.3
20260503014901 46 135 0.0 0.0 0.00 0.00 0.00 53 1017.4
20260503014354 46 180 0.0 0.0 0.00 0.00 0.00 54 1017.4
20260503013848 46 180 0.0 0.0 0.00 0.00 0.00 53 1017.4
20260503013341 47 180 0.0 0.0 0.00 0.00 0.00 55 1017.4
20260503012834 47 126 0.0 1.7 0.00 0.00 0.00 54 1017.4
20260503012327 47 100 0.0 0.9 0.00 0.00 0.00 54 1017.5
20260503011820 47 88 0.0 0.0 0.00 0.00 0.00 54 1017.5
20260503011313 47 70 0.0 0.0 0.00 0.00 0.00 53 1017.5
20260503010806 47 45 0.0 0.0 0.00 0.00 0.00 50 1017.5
20260503010259 47 99 0.0 0.0 0.00 0.00 0.00 51 1017.6
20260503005752 47 135 0.0 0.0 0.00 0.00 0.00 51 1017.6
20260503005245 47 127 0.0 0.0 0.00 0.00 0.00 52 1017.6
20260503004738 48 68 0.0 0.0 0.00 0.00 0.00 50 1017.6
20260503004231 48 80 0.0 0.0 0.00 0.00 0.00 49 1017.7
20260503003724 47 75 0.0 0.0 0.00 0.00 0.00 48 1017.8
20260503003217 47 94 0.0 0.0 0.00 0.00 0.00 48 1017.8
20260503002710 47 74 0.0 0.0 0.00 0.00 0.00 48 1017.8
20260503002203 48 45 0.0 0.0 0.00 0.00 0.00 49 1017.8
20260503001656 48 45 0.0 0.0 0.00 0.00 0.00 49 1017.8
20260503001149 49 45 0.0 0.0 0.00 0.00 0.00 48 1017.8
20260503000642 49 87 0.0 0.0 0.00 0.00 0.00 47 1017.8
20260503000135 49 126 0.0 0.0 0.00 0.00 0.00 46 1017.8
20260502235628 49 117 0.0 0.0 0.00 0.00 0.00 45 1017.8
20260502235121 50 57 0.0 0.0 0.00 0.00 0.00 45 1017.9
20260502234614 50 90 0.0 0.0 0.00 0.00 0.00 43 1017.9
20260502234106 50 99 0.0 0.0 0.00 0.00 0.00 45 1018.0
20260502233559 50 120 0.0 0.0 0.00 0.00 0.00 43 1018.0
20260502233052 50 180 0.0 0.0 0.00 0.00 0.00 44 1018.0
20260502232545 50 180 0.0 0.0 0.00 0.00 0.00 44 1018.1
20260502232038 50 141 0.0 0.0 0.00 0.00 0.00 44 1018.1
20260502231531 51 90 0.0 0.0 0.00 0.00 0.00 44 1018.1
20260502231024 51 90 0.0 0.0 0.00 0.00 0.00 42 1018.1
20260502230517 51 86 0.0 0.0 0.00 0.00 0.00 43 1018.2
20260502230010 51 45 0.0 0.0 0.00 0.00 0.00 43 1018.2
20260502225503 51 45 0.0 0.0 0.00 0.00 0.00 43 1018.2
20260502224956 51 48 0.0 0.0 0.00 0.00 0.00 42 1018.3
20260502224448 51 45 0.0 0.0 0.00 0.00 0.00 43 1018.3
20260502223941 51 45 0.0 0.0 0.00 0.00 0.00 42 1018.3
20260502223434 52 45 0.0 0.0 0.00 0.00 0.00 41 1018.4
20260502222927 52 45 0.0 0.0 0.00 0.00 0.00 40 1018.4